Back to catalog

STARLINK-31735

AliveCommunicationsVLEO
NORAD 60054·PAYLOAD·🇺🇸 United States

Launched Jun 8, 2024 from Vandenberg Space Force Base

Loading…

Next Passes (next 24 hours)

TLE

FreshSource: CelesTrak SupGP

Epoch: Sep 14, 2026, 22:43 UTC

1 60054C 24112S   26257.94701389  .00047591  00000+0  14063-2 0  2576
2 60054  53.1578 277.7109 0001157  86.0730 133.2738 15.34362705    11

Track STARLINK-31735 in real time with AllMySat

Download on the App Store